This is the latest recevied weather packets stored in our database for station/object KC5DAQ-28. If no packets are shown the sender has not sent any weather packets the latest 10 day(s).
| Time | Temp. | Humidity | Pressure | Rain* | Wind** | Luminosity | Snow |
|---|---|---|---|---|---|---|---|
| 1777851322 | 25.56° C | 41% | 1011.5 hPa | 0 mm | - | 292 W/m² | - |
| 1777851262 | 25.56° C | 41% | 1011.5 hPa | 0 mm | - | 295 W/m² | - |
| 1777851201 | 25.56° C | 40% | 1011.6 hPa | 0 mm | - | 297 W/m² | - |
| 1777851141 | 25.56° C | 40% | 1011.6 hPa | 0 mm | - | 309 W/m² | - |
| 1777851083 | 25.56° C | 41% | 1011.6 hPa | 0 mm | - | 309 W/m² | - |
| 1777851022 | 25.56° C | 41% | 1011.6 hPa | 0 mm | - | 322 W/m² | - |
| 1777850963 | 25.56° C | 41% | 1011.6 hPa | 0 mm | - | 322 W/m² | - |
| 1777850901 | 25.56° C | 41% | 1011.7 hPa | 0 mm | - | 322 W/m² | - |
| 1777850843 | 25.56° C | 41% | 1011.7 hPa | 0 mm | - | 325 W/m² | - |
| 1777850782 | 25.56° C | 40% | 1011.7 hPa | 0 mm | - | 324 W/m² | - |
| 1777850722 | 25.56° C | 40% | 1011.7 hPa | 0 mm | - | 308 W/m² | - |
| 1777850661 | 25.56° C | 40% | 1011.7 hPa | 0 mm | - | 308 W/m² | - |
| 1777850601 | 25.56° C | 41% | 1011.8 hPa | 0 mm | - | 348 W/m² | - |
| 1777850540 | 25.56° C | 40% | 1011.8 hPa | 0 mm | - | 348 W/m² | - |
| 1777850481 | 25.56° C | 39% | 1011.8 hPa | 0 mm | - | 350 W/m² | - |
| 1777850421 | 26.11° C | 39% | 1011.7 hPa | 0 mm | - | 353 W/m² | - |
| 1777850360 | 26.11° C | 39% | 1011.7 hPa | 0 mm | - | 325 W/m² | - |
| 1777850302 | 26.11° C | 39% | 1011.8 hPa | 0 mm | - | 362 W/m² | - |
| 1777850242 | 26.11° C | 39% | 1011.7 hPa | 0 mm | - | 310 W/m² | - |
| 1777850182 | 26.11° C | 40% | 1011.9 hPa | 0 mm | - | 350 W/m² | - |
| 1777850121 | 26.11° C | 40% | 1011.9 hPa | 0 mm | - | 368 W/m² | - |
| 1777850061 | 26.11° C | 40% | 1012 hPa | 0 mm | - | 334 W/m² | - |
| 1777850001 | 26.11° C | 40% | 1011.9 hPa | 0 mm | - | 390 W/m² | - |
| 1777849941 | 26.11° C | 39% | 1011.9 hPa | 0 mm | - | 390 W/m² | - |
| 1777849882 | 26.11° C | 39% | 1011.9 hPa | 0 mm | - | 394 W/m² | - |
* Rain latest hour (hover to see other rain measurements)
** Current wind speed in m/s (hover to see current wind gust speed)